Wind_Speed
13 5 2 7 2 5 2 0 2 4 7 4 5 6 11 15 11 7 9 12 11 4 4 5 4 7 11 9 8 9 10 8 9 11 13 14 14 14 19 28 24 28 27 26
13 5 2 3 3 3 6 7 6 6 8 9 6 3 8 9 8 4 4 7 7 12 9 5 6 8 10 11 10 10 10 9 7 9 10 15 16 18 18 21 27 27 28 29
4 5 3 9 9 6 5 8 6 7 4 10 6 9 10 10 11 9 8 6 9 12 17 13 9 9 11 12 10 14 13 11 9 9 11 15 19 22 23 22 25 28 28 28
3 1 4 9 10 7 8 4 3 2 5 5 7 5 8 14 12 11 9 5 3 1 9 13 12 11 8 10 17 20 20 21 17 11 16 17 20 21 20 22 22 26 29 30
3 5 5 4 3 7 10 15 13 11 16 11 11 7 12 17 16 12 9 3 3 8 4 7 8 10 9 10 13 17 24 27 22 21 20 21 25 23 23 25 27 29 30 30
4 8 8 5 3 11 7 10 5 8 8 6 15 17 11 22 13 11 13 8 3 8 6 8 9 10 9 8 8 11 14 22 27 25 26 27 27 28 27 28 30 31 31 30
12 11 10 7 4 3 3 5 3 3 1 6 6 15 24 11 20 12 10 8 7 7 3 3 7 6 5 8 5 10 17 20 22 29 29 30 33 33 34 33 33 36 31 32
4 2 6 6 9 9 15 4 1 3 2 6 5 8 11 18 21 12 12 12 13 10 8 5 7 11 10 9 10 15 21 23 28 29 34 34 35 39 36 38 37 38 37 35
2 3 4 11 12 11 7 4 3 3 2 1 5 9 8 10 18 18 15 15 17 13 11 10 11 10 12 15 16 18 21 25 27 29 33 40 43 43 40 40 41 43 41 38
4 3 3 15 10 5 16 10 5 4 1 3 5 5 9 13 21 20 18 19 20 17 15 14 13 16 19 21 23 22 21 21 23 27 33 40 41 42 40 40 45 46 42 44
6 3 12 15 6 8 6 8 6 5 5 5 1 6 11 13 14 16 17 19 20 18 14 16 18 22 23 26 26 23 25 22 20 23 30 34 36 39 36 37 40 41 40 33
5 5 10 16 6 8 9 11 10 4 4 6 5 10 6 8 13 18 19 19 19 17 18 18 20 22 24 31 28 27 28 22 22 24 25 26 30 32 34 34 33 40 41 35
5 5 9 12 5 10 6 10 11 11 10 10 2 8 18 12 14 18 20 18 19 19 18 18 22 29 34 33 32 28 29 26 23 25 24 24 24 26 30 30 32 46 23 40
6 2 4 4 6 7 9 12 12 13 13 17 22 26 24 26 22 21 21 21 19 18 18 21 28 36 41 35 33 33 31 33 25 24 22 21 24 25 22 20 19 19 9 9
9 4 4 5 7 12 15 19 20 23 26 22 26 25 24 25 20 17 17 18 17 16 18 23 29 38 43 35 35 35 36 30 25 25 24 22 22 22 17 13 15 12 12 6
8 10 10 13 13 17 21 25 28 27 17 20 24 27 24 17 18 19 16 16 16 17 19 24 33 39 37 32 37 32 28 25 24 24 24 23 20 18 13 15 17 14 15 20
14 17 18 23 25 24 25 28 22 18 18 24 31 26 21 22 22 18 17 18 19 19 22 28 36 37 34 34 29 29 26 24 24 24 23 22 20 17 15 15 14 16 12 25
27 27 26 28 21 8 32 16 15 22 23 24 27 28 21 15 16 19 20 21 22 23 26 33 39 37 34 28 29 29 26 25 24 26 25 24 21 17 17 14 8 8 7 15
18 12 12 13 20 26 15 15 27 26 29 27 28 26 21 20 22 22 23 23 24 26 32 38 38 36 31 29 28 29 26 26 26 27 26 23 20 16 12 12 11 10 11 10
10 17 13 15 9 5 16 15 18 25 33 29 29 28 27 25 25 25 23 27 29 33 36 37 39 41 33 30 28 27 25 31 25 25 19 18 17 17 12 12 14 13 17 16
15 20 18 13 11 9 9 11 14 11 20 20 20 22 25 26 25 25 28 32 33 34 36 37 40 36 30 32 32 23 27 20 22 20 17 16 13 14 9 8 11 13 17 18
21 13 15 12 7 8 18 21 16 22 26 25 23 22 23 24 24 27 28 30 32 35 37 36 36 33 27 32 31 26 27 25 23 21 15 12 10 9 8 7 7 8 9 10
13 15 15 16 16 23 27 25 20 15 19 21 20 20 22 25 27 28 27 30 33 34 32 31 30 31 30 35 32 30 22 27 23 19 15 13 13 11 8 9 11 12 14 15
19 24 29 33 31 32 34 27 23 19 20 20 19 22 23 24 25 27 29 36 31 30 30 31 31 35 33 32 35 28 25 24 19 17 17 15 14 12 9 10 13 13 13 13
25 29 32 36 34 31 28 25 21 18 22 23 23 24 25 27 29 31 31 33 32 31 28 31 31 31 31 32 34 30 25 24 19 18 18 17 16 14 12 13 12 12 14 16
20 17 19 23 21 25 28 30 25 22 20 20 20 21 23 24 25 27 30 30 32 33 34 31 27 25 26 29 28 23 21 20 19 19 19 18 18 16 15 14 12 12 14 16
Wind_Direction
323 306 68 41 354 340 294 169 230 217 229 256 310 290 242 271 251 257 277 266 254 273 284 281 328 293 292 308 322 333 331 307 299 296 289 282 284 267 238 224 227 228 235 231
277 248 115 67 37 339 308 300 339 323 248 240 288 337 190 190 162 191 238 231 222 248 266 300 313 290 273 291 321 310 316 330 315 298 291 283 282 279 266 238 230 228 231 240
266 170 289 335 316 303 310 325 342 329 236 213 285 294 200 179 180 188 180 178 207 226 247 265 296 310 284 273 290 304 314 288 309 303 298 295 278 270 266 261 242 237 238 240
178 195 311 324 323 283 291 352 352 171 222 228 222 282 274 196 183 203 206 165 113 129 233 255 278 299 296 314 286 285 288 301 291 288 279 294 292 279 268 265 263 245 240 241
248 226 282 301 40 337 314 309 299 244 255 248 240 241 236 214 207 208 204 203 339 22 359 27 337 311 306 290 285 292 277 297 287 275 280 283 288 281 274 260 251 250 245 246
225 220 209 183 264 307 301 289 330 208 235 247 251 207 261 228 234 223 221 235 2 8 49 46 39 43 35 28 15 352 303 297 286 276 280 288 295 277 269 264 262 256 258 257
331 212 218 264 288 208 345 4 343 338 4 228 285 212 241 249 238 239 229 249 298 311 334 28 8 317 345 355 315 304 293 298 300 274 276 286 283 293 274 265 262 266 267 257
316 209 270 299 269 285 316 324 120 231 241 294 163 228 254 250 238 232 239 260 297 281 276 283 316 329 317 313 307 292 287 286 284 281 269 280 289 287 280 266 261 261 257 256
258 149 73 10 285 268 309 283 273 263 326 249 215 275 270 220 215 223 236 258 276 264 273 289 285 287 301 312 310 301 298 292 282 279 269 270 280 282 281 272 266 255 252 259
286 301 325 351 338 255 290 257 291 310 117 287 274 263 248 229 224 225 239 258 257 267 277 278 287 302 310 307 317 322 312 300 284 277 275 276 280 283 281 272 273 268 260 250
233 284 316 331 354 339 12 239 327 313 277 181 229 258 279 269 255 247 244 251 261 276 277 276 302 310 312 324 326 324 326 309 302 295 283 280 279 280 283 282 279 281 277 227
208 257 307 314 235 104 57 35 27 1 301 275 254 286 283 241 225 235 246 260 263 260 270 296 309 315 329 330 328 332 328 308 302 300 296 294 284 280 280 279 283 266 263 242
244 223 334 343 214 230 266 345 344 342 324 291 242 281 309 272 240 246 254 261 253 264 288 306 325 342 336 331 329 323 319 318 304 306 304 301 290 279 277 280 296 289 302 203
239 255 334 291 317 320 309 315 314 313 309 303 296 299 302 300 284 275 257 252 258 275 292 322 343 344 337 328 327 320 315 315 305 311 317 312 299 286 286 289 289 310 286 329
243 286 285 282 297 296 297 295 300 306 304 295 304 295 303 302 279 275 257 248 269 289 304 327 339 337 332 326 322 314 312 304 296 306 314 316 317 297 293 288 287 282 225 176
258 275 275 282 282 289 285 282 288 295 293 301 312 311 304 287 252 254 261 268 282 296 317 335 332 332 327 315 313 314 310 301 294 300 305 313 317 310 302 292 285 266 255 224
267 272 275 281 299 294 284 281 289 287 288 303 302 308 309 292 265 251 268 281 291 307 324 325 330 325 317 317 316 317 309 298 293 291 297 303 307 310 309 311 301 285 256 242
287 274 275 285 286 284 285 290 284 285 284 302 302 302 302 296 263 271 282 288 302 311 317 325 326 323 320 314 313 313 300 297 297 289 290 293 296 298 293 295 286 288 287 201
273 272 280 284 284 284 276 279 294 296 295 293 297 302 293 277 268 274 286 293 301 308 317 322 321 327 321 324 321 313 307 301 300 298 288 283 289 291 282 274 275 264 215 211
270 294 300 298 275 252 321 303 286 285 280 294 298 298 295 282 272 300 296 301 305 310 314 320 324 329 328 320 318 312 305 311 297 298 287 281 284 281 272 268 265 246 220 241
278 296 299 292 284 293 345 349 331 304 310 309 308 297 288 286 294 296 297 300 302 309 314 319 323 324 320 319 318 302 311 301 294 295 288 288 285 271 267 273 262 236 236 246
279 281 284 279 282 281 305 308 313 302 306 306 305 298 286 286 284 286 289 296 303 305 310 314 315 311 309 314 320 309 308 301 291 289 281 276 256 253 253 274 271 242 230 243
259 267 274 290 285 287 295 299 295 297 305 297 288 277 271 272 278 289 299 300 304 303 297 297 300 301 304 312 316 313 299 300 285 281 271 261 247 249 255 269 270 259 245 252
272 274 278 288 287 290 295 297 303 297 306 306 293 289 284 286 291 298 307 321 310 294 295 296 293 297 306 311 313 312 304 302 275 270 264 253 248 250 255 271 273 262 255 249
277 282 287 287 288 285 285 294 296 303 302 302 297 294 297 302 310 313 315 324 319 311 304 307 299 302 307 310 314 311 299 286 279 270 260 251 242 244 253 268 264 257 252 249
284 276 280 288 287 287 295 297 295 293 295 287 289 291 292 294 296 299 303 305 306 304 305 307 298 298 310 308 310 303 297 290 277 271 261 252 246 246 252 260 263 261 255 250
Height
3187 3185 3185 3187 3186 3185 3185 3185 3184 3184 3184 3183 3182 3181 3183 3181 3181 3179 3178 3178 3178 3179 3180 3181 3181 3181 3183 3184 3186 3187 3188 3188 3187 3187 3186 3185 3186 3187 3189 3190 3190 3191 3192 3194
3189 3186 3187 3187 3187 3186 3185 3185 3184 3183 3182 3183 3181 3182 3181 3180 3179 3179 3178 3177 3177 3177 3179 3180 3180 3181 3181 3183 3184 3185 3187 3186 3184 3184 3183 3181 3180 3181 3183 3185 3186 3187 3187 3189
3188 3188 3188 3187 3187 3185 3184 3183 3183 3182 3181 3181 3181 3180 3180 3179 3179 3179 3178 3177 3176 3174 3178 3179 3179 3179 3180 3180 3181 3183 3183 3184 3183 3182 3180 3179 3178 3178 3178 3178 3181 3182 3183 3184
3188 3187 3186 3186 3185 3185 3182 3182 3180 3180 3180 3181 3181 3180 3177 3177 3178 3177 3176 3176 3176 3175 3176 3176 3176 3178 3179 3178 3179 3179 3180 3181 3180 3178 3177 3177 3176 3175 3176 3175 3176 3177 3178 3178
3188 3187 3186 3185 3184 3183 3182 3181 3179 3179 3179 3179 3179 3180 3175 3176 3176 3176 3175 3175 3174 3175 3175 3174 3174 3175 3175 3175 3176 3176 3176 3176 3175 3174 3173 3173 3172 3172 3171 3170 3170 3170 3171 3172
3185 3185 3185 3184 3184 3183 3181 3180 3178 3179 3178 3178 3174 3177 3172 3172 3173 3174 3174 3174 3174 3175 3174 3173 3173 3173 3173 3173 3172 3172 3173 3172 3171 3169 3168 3167 3167 3166 3165 3164 3163 3163 3164 3165
3184 3184 3183 3183 3183 3182 3180 3180 3178 3179 3179 3176 3173 3175 3168 3170 3171 3172 3172 3173 3174 3175 3173 3172 3170 3170 3170 3170 3169 3169 3169 3168 3166 3164 3162 3161 3160 3160 3158 3158 3157 3157 3157 3158
3184 3184 3183 3182 3182 3182 3180 3180 3179 3182 3181 3175 3173 3171 3168 3167 3169 3170 3170 3171 3172 3171 3169 3168 3168 3167 3167 3167 3166 3165 3164 3161 3159 3157 3156 3155 3154 3153 3151 3150 3150 3150 3146 3152
3183 3183 3182 3182 3180 3182 3180 3179 3179 3176 3174 3174 3172 3169 3167 3165 3166 3168 3167 3167 3167 3167 3166 3166 3166 3166 3165 3163 3162 3159 3156 3154 3151 3148 3148 3148 3146 3144 3143 3142 3141 3141 3139 3142
3183 3181 3181 3180 3180 3180 3180 3179 3177 3175 3176 3175 3169 3167 3165 3164 3164 3166 3166 3165 3164 3164 3164 3164 3164 3163 3162 3160 3156 3151 3148 3146 3143 3141 3139 3139 3137 3135 3134 3133 3130 3130 3127 3123
3183 3183 3182 3180 3180 3177 3177 3176 3177 3177 3175 3172 3173 3166 3163 3162 3163 3163 3164 3162 3162 3162 3162 3162 3161 3160 3156 3152 3149 3145 3141 3138 3136 3133 3131 3129 3127 3125 3123 3122 3121 3121 3119 3114
3182 3181 3179 3178 3179 3177 3176 3176 3175 3175 3174 3169 3167 3164 3161 3160 3160 3160 3160 3160 3159 3159 3159 3158 3157 3154 3150 3147 3142 3139 3136 3132 3129 3128 3125 3121 3118 3117 3115 3114 3112 3110 3106 3109
3178 3178 3177 3174 3176 3175 3175 3174 3173 3173 3171 3167 3165 3162 3160 3159 3157 3158 3157 3157 3157 3157 3155 3154 3152 3146 3143 3140 3136 3133 3130 3127 3125 3121 3118 3115 3111 3108 3106 3106 3106 3100 3086 3084
3177 3177 3176 3177 3176 3175 3173 3172 3171 3170 3168 3164 3161 3157 3156 3155 3155 3154 3154 3154 3154 3154 3152 3150 3146 3142 3139 3135 3131 3127 3123 3119 3116 3114 3111 3108 3104 3101 3100 3101 3099 3097 3091 3085
3176 3175 3175 3174 3174 3173 3171 3169 3167 3165 3163 3159 3156 3153 3153 3150 3149 3150 3151 3152 3152 3150 3149 3146 3142 3140 3135 3130 3126 3121 3115 3111 3109 3107 3105 3102 3098 3096 3095 3095 3095 3092 3090 3092
3174 3173 3173 3171 3171 3169 3166 3164 3162 3160 3157 3153 3151 3148 3147 3146 3146 3147 3148 3148 3148 3146 3144 3140 3138 3134 3131 3127 3122 3116 3110 3105 3103 3102 3100 3097 3094 3092 3091 3090 3089 3090 3091 3091
3172 3171 3169 3166 3166 3163 3160 3156 3156 3154 3153 3151 3147 3146 3143 3143 3143 3143 3144 3144 3142 3140 3138 3136 3133 3129 3125 3120 3114 3110 3105 3102 3099 3097 3095 3093 3090 3088 3086 3085 3085 3083 3083 3084
3166 3165 3164 3159 3160 3157 3153 3153 3151 3148 3147 3146 3143 3141 3140 3139 3140 3140 3139 3138 3136 3134 3133 3130 3126 3122 3117 3113 3109 3104 3100 3097 3095 3093 3091 3088 3086 3084 3083 3082 3082 3081 3079 3082
3159 3159 3157 3155 3154 3151 3152 3150 3147 3144 3141 3140 3138 3136 3135 3135 3134 3134 3134 3133 3132 3130 3128 3125 3121 3116 3112 3107 3103 3099 3095 3092 3090 3088 3085 3084 3081 3079 3079 3081 3081 3082 3082 3083
3156 3155 3155 3153 3151 3148 3147 3144 3141 3138 3132 3135 3133 3132 3132 3130 3129 3131 3129 3127 3126 3124 3122 3118 3113 3108 3104 3101 3097 3093 3090 3086 3084 3082 3079 3078 3077 3075 3075 3077 3077 3078 3079 3081
3152 3151 3150 3148 3146 3145 3141 3139 3137 3137 3137 3131 3130 3129 3127 3126 3126 3125 3124 3122 3119 3117 3114 3110 3105 3101 3098 3094 3090 3087 3084 3080 3079 3078 3075 3074 3073 3072 3071 3071 3072 3074 3076 3077
3149 3149 3147 3144 3142 3139 3136 3136 3136 3133 3128 3127 3126 3125 3122 3121 3121 3120 3118 3116 3113 3109 3105 3101 3098 3094 3092 3089 3085 3081 3078 3076 3074 3073 3071 3070 3070 3070 3069 3068 3069 3070 3070 3073
3145 3145 3143 3143 3139 3136 3133 3131 3129 3127 3125 3123 3122 3121 3119 3117 3115 3114 3112 3109 3106 3101 3098 3095 3092 3088 3085 3082 3078 3074 3072 3069 3067 3067 3067 3066 3066 3067 3066 3066 3067 3067 3068 3069
3139 3138 3136 3135 3133 3130 3126 3124 3123 3121 3120 3119 3118 3116 3114 3112 3110 3108 3104 3101 3096 3094 3091 3089 3085 3081 3078 3074 3071 3068 3065 3063 3061 3061 3061 3062 3062 3063 3062 3063 3063 3063 3064 3065
3134 3132 3129 3125 3124 3120 3119 3118 3116 3115 3115 3114 3112 3110 3107 3105 3102 3098 3095 3091 3089 3085 3082 3079 3076 3073 3070 3067 3064 3061 3059 3057 3056 3056 3056 3056 3058 3058 3057 3059 3059 3060 3061 3061
3125 3124 3122 3117 3118 3115 3113 3112 3111 3109 3108 3106 3104 3102 3099 3096 3093 3090 3087 3084 3080 3077 3074 3070 3068 3066 3064 3061 3057 3056 3053 3052 3052 3051 3051 3051 3052 3053 3054 3055 3055 3055 3055 3056